Location: PACMO
(41.3967°N, 90.3760°W)
Time: 22:02:15
(UTC-05:00)

NOAA 19 - Visible Passes

Search period start: 20 October 2017 00:00
Search period end: 30 October 2017 00:00
Orbit: 842 x 861 km, 99.1° (Epoch: 20 October)

Date Brightness Start Highest point End Pass type
(mag) Time Alt. Az. Time Alt. Az. Time Alt. Az.
20 Oct 8.1 03:19:53 10° E 03:20:36 10° E 03:21:19 10° E visible
20 Oct 5.2 04:56:27 10° NNE 05:02:03 84° ESE 05:04:10 40° S visible
20 Oct 6.8 06:39:00 10° NNW 06:41:58 15° WNW 06:44:56 10° W visible
21 Oct 5.5 04:44:58 10° NNE 04:50:32 67° ESE 04:52:21 42° S visible
21 Oct 6.6 06:26:56 10° NNW 06:30:38 18° WNW 06:34:18 10° WSW visible
22 Oct 5.9 04:33:32 10° NNE 04:38:58 53° E 04:40:33 40° SSE visible
22 Oct 6.3 06:15:02 10° NNW 06:19:16 23° WNW 06:22:33 14° WSW visible
23 Oct 6.3 04:22:09 10° NNE 04:27:24 41° E 04:28:44 36° SE visible
23 Oct 6.1 06:03:14 10° N 06:07:52 28° WNW 06:10:44 18° WSW visible
24 Oct 6.7 04:10:51 10° NNE 04:15:50 33° E 04:16:55 30° ESE visible
24 Oct 5.8 05:51:29 10° N 05:56:27 34° WNW 05:58:56 24° WSW visible
25 Oct 7.0 03:59:37 10° NE 04:04:13 26° E 04:05:05 25° ESE visible
25 Oct 5.5 05:39:48 10° N 05:45:01 43° WNW 05:47:06 30° WSW visible
26 Oct 7.4 03:48:30 10° NE 03:52:35 21° E 03:53:16 20° ESE visible
26 Oct 5.3 05:28:10 10° N 05:33:34 54° WNW 05:35:17 39° WSW visible
27 Oct 7.7 03:37:35 10° NE 03:40:56 16° E 03:41:26 16° E visible
27 Oct 5.1 05:16:34 10° N 05:22:06 68° WNW 05:23:27 49° SW visible
28 Oct 7.9 03:27:01 10° ENE 03:29:15 12° E 03:29:36 12° E visible
28 Oct 5.1 05:05:01 10° NNE 05:10:36 85° WNW 05:11:37 61° SSW visible
28 Oct 6.9 06:48:04 10° NNW 06:50:24 13° WNW 06:52:43 10° W visible
29 Oct 5.2 04:53:30 10° NNE 04:59:05 78° ESE 04:59:47 67° SSE visible
29 Oct 6.7 06:35:50 10° NNW 06:39:03 16° WNW 06:41:47 11° W visible
